[[{"header":{"parameterUnit":"m.s-1","parameterCategory":1,"la1":30.2991,"la2":30.254,"lo1":-89.0895,"lo2":-89.0444,"dy":0.0017,"dx":0.0017,"nx":28,"ny":28,"refTime":"2025-12-21T09:00:00:Z","depth":0,"parameterNumber":2,"parameterNumberName":"U-component_of_WINDS"},"data":[0,0,0,0,0,0,0,0,0,0,0,0,0,0,0,0,0,0,0,0,0,0,0,0,0,0,0,0,0,0,0,0,0,0,0,0,0,0,0,0,0,0,0,0,0,0,0,0,0,0,0,0,0,0,0,0,0,0,-2.7174,-2.7175,0,-2.722,-2.722,-2.7221,-2.7164,-2.7162,-2.716,-2.7158,-2.7206,-2.7209,-2.7212,0,0,0,0,0,0,0,0,0,0,0,0,0,-2.7041,-2.7044,-2.7174,-2.7175,-2.7175,-2.722,-2.722,-2.7221,-2.7165,-2.7162,-2.716,-2.7157,-2.7205,-2.7209,-2.7213,0,0,0,0,0,0,0,0,0,0,0,0,0,-2.7094,-2.7045,-2.7174,-2.7153,-2.7151,-2.7219,-2.722,-2.7221,-2.7165,-2.7162,-2.7159,-2.7156,-2.7204,-2.7208,-2.7213,-2.7305,0,0,-2.7228,-2.723,0,0,0,0,0,0,0,0,-2.7091,-2.7099,-2.7155,-2.7154,-2.7153,-2.7183,-2.7191,-2.7249,-2.7166,-2.716,-2.7158,-2.7155,-2.7201,-2.7206,-2.7221,-2.7307,-2.7309,-2.7228,-2.7231,-2.7233,-2.7235,0,0,0,0,0,0,0,-2.7088,-2.7097,-2.7192,-2.7156,-2.7155,-2.7142,-2.7146,-2.7202,-2.7197,-2.716,-2.7156,-2.7162,-2.72,-2.7217,-2.7222,-2.731,-2.7228,-2.7233,-2.7235,-2.7237,-2.7476,-2.7479,0,0,0,0,0,0,-2.7086,-2.7094,-2.7191,-2.7194,-2.7114,-2.7147,-2.7151,-2.7177,-2.7197,-2.7197,-2.7165,-2.716,-2.721,-2.7216,-2.7224,-2.7333,-2.7233,-2.7238,-2.7241,-2.7472,-2.7476,-2.748,0,0,0,0,0,0,-2.7084,-2.7095,-2.7189,-2.7143,-2.7154,-2.7152,-2.7181,-2.7179,-2.7196,-2.72,-2.7199,-2.7183,-2.7208,-2.7217,-2.7286,-2.7334,-2.724,-2.7244,-2.7468,-2.7474,-2.7478,-2.7552,0,0,0,0,0,0,-2.708,-2.7095,-2.7129,-2.7144,-2.7156,-2.7249,-2.7184,-2.7182,-2.7204,-2.7198,-2.7217,-2.7217,-2.7206,-2.7279,-2.729,-2.7339,-2.7248,-2.7464,-2.7471,-2.7477,-2.7545,-2.7559,-2.7571,0,0,0,0,0,-2.7075,-2.7148,-2.7131,-2.7143,-2.7199,-2.7252,-2.7259,-2.7245,-2.7208,-2.7243,-2.7246,-2.7216,-2.7327,-2.7286,-2.7299,-2.7349,-2.7461,-2.7469,-2.7476,-2.7539,-2.7556,-2.7571,0,0,0,0,0,0,-2.7138,-2.7149,-2.713,-2.721,-2.7231,-2.7243,-2.7286,-2.7263,-2.7295,-2.7287,-2.7269,-2.7274,-2.7347,-2.7355,-2.731,-2.744,-2.7388,-2.7399,-2.7432,-2.7448,-2.746,-2.7456,-2.7252,0,0,0,0,0,-2.7161,-2.7203,-2.7211,-2.728,-2.7291,-2.7287,-2.731,-2.7297,-2.7318,-2.7327,-2.7335,-2.7357,-2.7396,-2.7423,-2.7459,-2.7547,-2.7551,-2.7588,-2.7601,-2.7611,-2.762,-2.7668,-2.7685,-2.7506,-2.7506,-2.7505,0,0,-2.7209,-2.722,-2.7248,-2.7293,-2.7307,-2.7352,-2.7295,-2.7344,-2.7377,-2.7334,-2.7399,-2.7407,-2.743,-2.7509,-2.7544,-2.7518,-2.7671,-2.7621,-2.763,-2.7633,-2.7678,-2.7695,-2.771,-2.7511,-2.751,-2.7509,0,0,-2.7318,-2.7331,-2.739,-2.7407,-2.743,-2.7427,-2.7442,-2.7458,-2.7461,-2.7526,-2.7495,-2.7535,-2.7604,-2.7622,-2.764,-2.776,-2.7734,-2.7773,-2.7839,-2.7886,-2.79,-2.7913,-2.7955,-2.7971,-2.7782,-2.7782,-2.7783,0,-2.7374,-2.7439,-2.7424,-2.7476,-2.7497,-2.7461,-2.7522,-2.7538,-2.7573,-2.7588,-2.7559,-2.7645,-2.7659,-2.7742,-2.7771,-2.7787,-2.7804,-2.777,-2.7899,-2.7912,-2.7923,-2.7964,-2.798,-2.7787,-2.7786,-2.7786,-2.7786,0,-2.7508,-2.7554,-2.7599,-2.7633,-2.766,-2.7716,-2.771,-2.7739,-2.7725,-2.7726,-2.7794,-2.7809,-2.7849,-2.7868,-2.7855,-2.795,-2.7933,-2.7902,-2.7849,-2.7945,-2.7983,-2.7998,-2.7793,-2.7792,-2.779,-2.7789,0,0,-2.7655,-2.7682,-2.7698,-2.7714,-2.7738,-2.7774,-2.7829,-2.7868,-2.7894,-2.792,-2.7966,-2.8026,-2.7998,-2.8019,-2.8008,-2.805,-2.8144,-2.8014,-2.8014,-2.8037,-2.825,-2.8272,-2.829,-2.8128,-2.8131,-2.8133,-2.8248,0,-2.7764,-2.7859,-2.7848,-2.7939,-2.7982,-2.795,-2.7998,-2.8019,-2.8022,-2.806,-2.8064,-2.8106,-2.8066,-2.8079,-2.8119,-2.8124,-2.8186,-2.8116,-2.8171,-2.8173,-2.8164,-2.831,-2.8333,-2.8441,-2.8263,-2.8265,-2.8267,0,-2.7903,-2.7934,-2.803,-2.8049,-2.8067,-2.811,-2.8146,-2.8182,-2.8206,-2.8205,-2.823,-2.8213,-2.827,-2.8217,-2.8296,-2.8248,-2.827,-2.8277,-2.8281,-2.8284,-2.8224,-2.8317,-2.8475,-2.849,-2.829,-2.8288,-2.8287,0,-2.8,-2.8067,-2.8132,-2.8147,-2.8171,-2.8202,-2.8214,-2.8235,-2.826,-2.8292,-2.8308,-2.8346,-2.8367,-2.8398,-2.8391,-2.8354,-2.8472,-2.8419,-2.8473,-2.8474,-2.8498,-2.8496,-2.8661,-2.8515,-2.8515,-2.8514,-2.8514,0,-2.8123,-2.8182,-2.8176,-2.8216,-2.8283,-2.8271,-2.8337,-2.8345,-2.8364,-2.8406,-2.8382,-2.8423,-2.8413,-2.8453,-2.8449,-2.8515,-2.8525,-2.8526,-2.8524,-2.8528,-2.8527,-2.8541,-2.8533,-2.8519,-2.8518,-2.8517,-2.8516,0,-2.8241,-2.8239,-2.8309,-2.8327,-2.8333,-2.8381,-2.8397,-2.8436,-2.8438,-2.8492,-2.8504,-2.8508,-2.8554,-2.8552,-2.8604,-2.8602,-2.8683,-2.8673,-2.8675,-2.8672,-2.8727,-2.8721,-2.8904,-2.8928,-2.8768,-2.877,-2.8771,0,-2.8318,-2.8363,-2.8387,-2.8413,-2.8427,-2.847,-2.8495,-2.8486,-2.8514,-2.8546,-2.8581,-2.8626,-2.866,-2.8737,-2.8744,-2.8785,-2.8775,-2.8837,-2.8781,-2.8783,-2.8775,-2.8772,-2.8777,-2.8847,-2.8849,-2.885,-2.8851,0,-2.8455,-2.8453,-2.849,-2.8528,-2.8559,-2.8588,-2.8615,-2.8639,-2.8633,-2.8666,-2.8713,-2.874,-2.8795,-2.8839,-2.8879,-2.8892,-2.8871,-2.887,-2.8884,-2.8887,-2.8886,-2.8887,-2.8703,-2.8865,-2.8863,-2.8862,-2.8862,-2.8861,-2.8554,-2.8593,-2.8616,-2.8659,-2.8679,-2.8705,-2.8743,-2.8751,-2.879,-2.8833,-2.8826,-2.8879,-2.8904,-2.8955,-2.8972,-2.9015,-2.8993,-2.9014,-2.9019,-2.9024,-2.903,-2.8881,-2.9022,-2.9022,-2.9021,-2.9021,-2.9021,0,-2.8689,-2.8703,-2.8743,-2.8781,-2.8816,-2.8795,-2.8824,-2.8854,-2.8901,-2.8926,-2.8962,-2.9017,-2.9061,-2.9074,-2.9116,-2.9148,-2.914,-2.9159,-2.9156,-2.9159,-2.9047,-2.903,-2.9165,-2.9165,-2.9165,-2.9165,-2.9165,-2.9165,-2.8763,-2.8828,-2.8829,-2.8904,-2.8918,-2.897,-2.8989,-2.9013,-2.9033,-2.9096,-2.9133,-2.9141,-2.9161,-2.9206,-2.9246,-2.9248,-2.9265,-2.9288,-2.9287,-2.9182,-2.9167,-2.9153,-2.9137,-2.9292,-2.9292,-2.9395,-2.9396,-2.9397]},{"header":{"parameterUnit":"m.s-1","parameterCategory":1,"la1":30.2991,"la2":30.254,"lo1":-89.0895,"lo2":-89.0444,"dy":0.0017,"dx":0.0017,"nx":28,"ny":28,"refTime":"2025-12-21T09:00:00:Z","depth":0,"parameterNumber":3,"parameterNumberName":"V-component_of_WINDS"},"data":[0,0,0,0,0,0,0,0,0,0,0,0,0,0,0,0,0,0,0,0,0,0,0,0,0,0,0,0,0,0,0,0,0,0,0,0,0,0,0,0,0,0,0,0,0,0,0,0,0,0,0,0,0,0,0,0,0,0,1.6824,1.6824,0,1.6816,1.6816,1.6816,1.6779,1.6778,1.6777,1.6777,1.6769,1.6769,1.677,0,0,0,0,0,0,0,0,0,0,0,0,0,1.6808,1.6809,1.6824,1.6824,1.6824,1.6816,1.6816,1.6816,1.6779,1.6778,1.6777,1.6776,1.6768,1.6769,1.677,0,0,0,0,0,0,0,0,0,0,0,0,0,1.6809,1.6809,1.6824,1.6805,1.6803,1.6816,1.6816,1.6816,1.6779,1.6778,1.6777,1.6776,1.6768,1.6769,1.677,1.6801,0,0,1.6773,1.6773,0,0,0,0,0,0,0,0,1.6809,1.681,1.6808,1.6806,1.6804,1.6797,1.6807,1.6811,1.678,1.6788,1.6776,1.6775,1.6779,1.6779,1.678,1.6801,1.68,1.6773,1.6773,1.6774,1.6774,0,0,0,0,0,0,0,1.6809,1.681,1.6821,1.6808,1.6805,1.6796,1.6795,1.6808,1.6791,1.6787,1.6785,1.6784,1.6778,1.678,1.678,1.68,1.6773,1.6773,1.6774,1.6774,1.6845,1.6847,0,0,0,0,0,0,1.6812,1.681,1.6821,1.682,1.6804,1.6798,1.6796,1.6801,1.6791,1.6788,1.6785,1.6783,1.6779,1.6779,1.6779,1.6815,1.6774,1.6774,1.6775,1.6844,1.6846,1.6847,0,0,0,0,0,0,1.6812,1.6813,1.6821,1.6815,1.6815,1.6799,1.6805,1.6801,1.6803,1.6789,1.6786,1.679,1.6778,1.6778,1.6796,1.6814,1.6775,1.6776,1.6842,1.6845,1.6846,1.6887,0,0,0,0,0,0,1.6811,1.6813,1.6825,1.6815,1.6815,1.6838,1.6806,1.6802,1.6804,1.6801,1.6793,1.679,1.6777,1.6795,1.6797,1.6815,1.6776,1.6841,1.6843,1.6846,1.6884,1.689,1.6895,0,0,0,0,0,1.6811,1.6837,1.6826,1.6827,1.683,1.6839,1.6839,1.6823,1.6806,1.6818,1.6809,1.6791,1.6812,1.6797,1.6799,1.6817,1.6839,1.6843,1.6846,1.6881,1.6889,1.6895,0,0,0,0,0,0,1.6849,1.6835,1.6823,1.6846,1.6844,1.6833,1.6847,1.6831,1.6834,1.6831,1.681,1.6809,1.683,1.6825,1.6809,1.6847,1.6823,1.6826,1.6849,1.6856,1.6862,1.6863,1.6777,0,0,0,0,0,1.6861,1.6869,1.6856,1.6878,1.6878,1.6863,1.6866,1.6854,1.6851,1.685,1.6842,1.684,1.6847,1.6851,1.6856,1.6883,1.6881,1.6897,1.6903,1.6907,1.6911,1.6925,1.6932,1.6857,1.6857,1.6857,0,0,1.6884,1.6877,1.6884,1.6886,1.6883,1.6892,1.6862,1.6874,1.6881,1.6852,1.6868,1.6862,1.6859,1.6881,1.6891,1.6878,1.6931,1.6911,1.6915,1.6916,1.6929,1.6936,1.6942,1.6859,1.6859,1.6859,0,0,1.6931,1.6927,1.6945,1.6942,1.6938,1.6927,1.6932,1.6923,1.6918,1.6934,1.6912,1.692,1.6931,1.693,1.693,1.6977,1.696,1.6979,1.7009,1.7023,1.7029,1.7034,1.7051,1.7057,1.6982,1.6982,1.6983,0,1.6961,1.6974,1.6956,1.6968,1.697,1.6944,1.6962,1.696,1.6958,1.696,1.6946,1.6959,1.6955,1.6976,1.6988,1.6989,1.6993,1.698,1.703,1.7034,1.7039,1.7055,1.7061,1.6985,1.6985,1.6984,1.6984,0,1.701,1.702,1.7035,1.7033,1.7036,1.7052,1.7036,1.7041,1.7028,1.702,1.7036,1.703,1.7033,1.7038,1.7025,1.7058,1.705,1.7033,1.7008,1.7049,1.7063,1.7069,1.6988,1.6987,1.6987,1.6986,0,0,1.7082,1.7069,1.7075,1.7074,1.7067,1.7074,1.7089,1.7091,1.7097,1.7096,1.7107,1.7117,1.7101,1.7102,1.709,1.7102,1.7139,1.7083,1.7083,1.7094,1.7174,1.7187,1.7194,1.7128,1.7129,1.713,1.7175,0,1.7127,1.715,1.7134,1.716,1.7169,1.7144,1.7156,1.7154,1.7146,1.7152,1.7143,1.7151,1.713,1.713,1.7141,1.7132,1.7155,1.7129,1.7139,1.7139,1.714,1.7202,1.7216,1.7258,1.718,1.7181,1.7182,0,1.7183,1.7184,1.7211,1.7202,1.7205,1.7217,1.7218,1.7224,1.7221,1.7214,1.7215,1.7199,1.7213,1.7188,1.7206,1.7189,1.7192,1.7188,1.719,1.719,1.7163,1.7204,1.7271,1.7278,1.719,1.719,1.7189,0,1.7232,1.7241,1.7258,1.7258,1.7248,1.7256,1.7253,1.7248,1.7251,1.7252,1.7254,1.7257,1.7259,1.7261,1.7247,1.723,1.7267,1.7241,1.7262,1.7263,1.7271,1.7271,1.734,1.7273,1.7273,1.7273,1.7273,0,1.7284,1.7302,1.728,1.7291,1.7309,1.7291,1.731,1.7304,1.73,1.7309,1.7288,1.7297,1.7277,1.7284,1.7272,1.7289,1.729,1.7285,1.7282,1.7287,1.7288,1.7289,1.7286,1.7274,1.7274,1.7274,1.7273,0,1.7343,1.7329,1.7346,1.7335,1.7333,1.7347,1.7338,1.7348,1.7338,1.735,1.7352,1.7337,1.7345,1.733,1.7336,1.7328,1.7352,1.7344,1.7353,1.7351,1.7373,1.7371,1.7445,1.7454,1.7381,1.7382,1.7382,0,1.7377,1.739,1.738,1.7385,1.7382,1.739,1.7393,1.7375,1.7378,1.7375,1.7385,1.739,1.7394,1.7406,1.7397,1.7401,1.7393,1.7418,1.7393,1.7398,1.7393,1.7393,1.7394,1.7424,1.7425,1.7425,1.7426,0,1.7439,1.7432,1.7436,1.7439,1.7443,1.7444,1.7443,1.7448,1.7429,1.7434,1.7441,1.7444,1.7449,1.7455,1.7456,1.7453,1.7437,1.7434,1.7439,1.7445,1.7449,1.7447,1.7367,1.7432,1.7432,1.7431,1.7431,1.7431,1.7487,1.7497,1.7492,1.7498,1.7496,1.7496,1.7504,1.7496,1.7501,1.7504,1.7493,1.7502,1.7498,1.7499,1.7497,1.7504,1.7493,1.75,1.7502,1.7504,1.7508,1.7448,1.7504,1.7504,1.7504,1.7504,1.7504,0,1.7548,1.7544,1.7549,1.7549,1.7554,1.7538,1.7536,1.7541,1.755,1.7547,1.7551,1.7559,1.7564,1.7555,1.7559,1.7566,1.7559,1.7568,1.7568,1.7567,1.7518,1.7513,1.7574,1.7574,1.7574,1.7574,1.7574,1.7574,1.7581,1.7597,1.7589,1.7604,1.76,1.7608,1.7609,1.7609,1.7607,1.7617,1.7621,1.7615,1.761,1.7613,1.7617,1.7614,1.7617,1.7629,1.7623,1.7577,1.757,1.7564,1.7559,1.7629,1.7629,1.7672,1.7672,1.7672]}]]